QPF
0.02 0.03 0.02 0.03 0.02 0.02 0.03 0.03 0.05 0.04 0.04 0.05 0.05 0.04 0.03 0.04 0.04 0.04 0.05 0.06 0.06 0.07 0.07 0.06 0.06 0.07 0.07 0.07 0.06 0.06 0.06 0.06 0.06 0.05 0.05 0.04 0.03 0.02 0.02 0.02 0.02 0.02 0.02
0.05 0.07 0.06 0.06 0.05 0.06 0.08 0.08 0.08 0.08 0.05 0.06 0.08 0.07 0.04 0.04 0.04 0.05 0.06 0.07 0.07 0.06 0.05 0.06 0.07 0.07 0.08 0.07 0.06 0.06 0.07 0.08 0.08 0.07 0.07 0.06 0.05 0.04 0.03 0.04 0.03 0.03 0.03
0.13 0.13 0.14 0.13 0.11 0.12 0.14 0.18 0.12 0.10 0.08 0.07 0.06 0.05 0.05 0.04 0.05 0.05 0.05 0.06 0.07 0.05 0.04 0.05 0.06 0.07 0.07 0.07 0.07 0.07 0.08 0.08 0.08 0.07 0.07 0.07 0.07 0.06 0.05 0.05 0.04 0.04 0.04
0.25 0.25 0.22 0.19 0.15 0.15 0.17 0.20 0.18 0.12 0.09 0.09 0.09 0.06 0.05 0.05 0.05 0.05 0.06 0.08 0.09 0.08 0.08 0.07 0.07 0.08 0.07 0.07 0.07 0.09 0.09 0.09 0.09 0.09 0.08 0.08 0.08 0.07 0.06 0.06 0.06 0.06 0.06
0.32 0.31 0.30 0.26 0.23 0.19 0.17 0.16 0.13 0.11 0.09 0.08 0.11 0.10 0.09 0.09 0.08 0.08 0.08 0.09 0.10 0.10 0.10 0.08 0.09 0.08 0.07 0.08 0.07 0.07 0.08 0.08 0.08 0.08 0.08 0.07 0.07 0.08 0.08 0.08 0.08 0.07 0.07
0.40 0.35 0.30 0.26 0.26 0.24 0.19 0.16 0.14 0.11 0.09 0.08 0.09 0.11 0.10 0.10 0.10 0.10 0.10 0.10 0.09 0.10 0.10 0.10 0.11 0.10 0.08 0.07 0.06 0.07 0.08 0.10 0.10 0.09 0.09 0.09 0.10 0.10 0.09 0.08 0.07 0.07 0.08
0.43 0.40 0.39 0.34 0.30 0.29 0.24 0.20 0.17 0.14 0.10 0.10 0.11 0.10 0.09 0.09 0.12 0.11 0.11 0.11 0.09 0.08 0.09 0.10 0.09 0.08 0.06 0.06 0.05 0.05 0.07 0.09 0.10 0.09 0.10 0.10 0.08 0.07 0.06 0.07 0.07 0.07 0.08
0.43 0.46 0.47 0.40 0.34 0.31 0.28 0.24 0.20 0.16 0.12 0.11 0.09 0.09 0.08 0.09 0.09 0.08 0.10 0.12 0.11 0.10 0.09 0.09 0.08 0.08 0.06 0.05 0.05 0.05 0.05 0.05 0.09 0.13 0.12 0.08 0.07 0.06 0.06 0.05 0.06 0.06 0.05
0.34 0.35 0.40 0.39 0.36 0.33 0.28 0.24 0.22 0.18 0.17 0.15 0.12 0.10 0.09 0.07 0.07 0.06 0.07 0.08 0.08 0.09 0.09 0.07 0.05 0.04 0.03 0.03 0.02 0.02 0.02 0.02 0.04 0.06 0.06 0.05 0.04 0.05 0.05 0.06 0.06 0.06 0.05
0.32 0.29 0.31 0.35 0.32 0.28 0.26 0.23 0.23 0.21 0.22 0.22 0.22 0.16 0.11 0.08 0.07 0.07 0.06 0.05 0.05 0.05 0.04 0.03 0.02 0.02 0.01 0.01 0.01 0.01 0.01 0.01 0.01 0.02 0.02 0.03 0.03 0.04 0.04 0.05 0.06 0.06 0.06
0.26 0.21 0.22 0.24 0.26 0.25 0.24 0.23 0.22 0.21 0.18 0.17 0.17 0.17 0.15 0.13 0.10 0.08 0.06 0.05 0.05 0.04 0.03 0.02 0.01 0.01 0.01 0.00 0.00 0.01 0.01 0.01 0.01 0.01 0.01 0.02 0.02 0.03 0.03 0.03 0.04 0.05 0.05
0.23 0.17 0.17 0.18 0.20 0.19 0.17 0.21 0.23 0.22 0.17 0.14 0.13 0.12 0.12 0.12 0.11 0.09 0.06 0.06 0.05 0.04 0.02 0.02 0.01 0.01 0.01 0.01 0.01 0.01 0.01 0.00 0.00 0.00 0.00 0.01 0.01 0.01 0.02 0.02 0.02 0.04 0.06
0.26 0.21 0.15 0.16 0.17 0.18 0.18 0.18 0.19 0.19 0.17 0.13 0.10 0.08 0.07 0.08 0.07 0.06 0.05 0.05 0.05 0.03 0.02 0.01 0.01 0.01 0.01 0.01 0.01 0.01 0.01 0.00 0.00 0.00 0.00 0.00 0.01 0.01 0.01 0.01 0.01 0.02 0.03
0.11 0.12 0.09 0.08 0.08 0.08 0.09 0.10 0.13 0.14 0.13 0.11 0.09 0.07 0.05 0.04 0.03 0.03 0.03 0.03 0.03 0.03 0.02 0.01 0.01 0.01 0.01 0.01 0.01 0.01 0.00 0.01 0.01 0.00 0.00 0.00 0.01 0.01 0.01 0.01 0.01 0.01 0.01
0.06 0.05 0.05 0.06 0.07 0.07 0.06 0.06 0.08 0.09 0.09 0.08 0.07 0.06 0.05 0.04 0.02 0.02 0.01 0.01 0.01 0.01 0.01 0.01 0.01 0.00 0.00 0.00 0.01 0.00 0.00 0.00 0.00 0.01 0.00 0.00 0.00 0.00 0.01 0.01 0.01 0.01 0.02
0.04 0.04 0.03 0.03 0.04 0.04 0.05 0.05 0.06 0.06 0.05 0.04 0.03 0.02 0.02 0.01 0.01 0.00 0.00 0.00 0.00 0.00 0.01 0.01 0.01 0.01 0.01 0.01 0.01 0.00 0.00 0.00 0.00 0.00 0.00 0.00 0.00 0.00 0.00 0.00 0.01 0.01 0.02
0.03 0.03 0.02 0.01 0.02 0.02 0.02 0.02 0.02 0.02 0.02 0.02 0.01 0.01 0.01 0.00 0.00 0.00 0.00 0.00 0.00 0.00 0.00 0.01 0.01 0.01 0.00 0.00 0.00 0.00 0.00 0.00 0.00 0.00 0.00 0.00 0.00 0.00 0.00 0.00 0.00 0.00 0.01
0.02 0.02 0.01 0.01 0.01 0.01 0.00 0.00 0.00 0.00 0.00 0.00 0.01 0.01 0.00 0.00 0.00 0.00 0.00 0.00 0.00 0.00 0.00 0.00 0.00 0.00 0.00 0.00 0.00 0.00 0.00 0.00 0.00 0.00 0.00 0.00 0.00 0.00 0.00 0.00 0.00 0.00 0.00
0.01 0.01 0.01 0.01 0.00 0.00 0.00 0.00 0.00 0.00 0.00 0.00 0.00 0.00 0.00 0.00 0.00 0.00 0.00 0.00 0.00 0.00 0.00 0.00 0.00 0.00 0.00 0.00 0.00 0.00 0.00 0.00 0.00 0.00 0.00 0.00 0.00 0.00 0.00 0.00 0.00 0.00 0.00
0.01 0.01 0.00 0.00 0.00 0.00 0.00 0.00 0.00 0.00 0.00 0.00 0.00 0.00 0.00 0.00 0.00 0.00 0.00 0.00 0.00 0.00 0.00 0.00 0.00 0.00 0.00 0.00 0.00 0.00 0.00 0.00 0.00 0.00 0.00 0.00 0.00 0.00 0.00 0.00 0.00 0.00 0.00
0.01 0.00 0.00 0.00 0.00 0.00 0.00 0.00 0.00 0.00 0.00 0.00 0.00 0.00 0.00 0.00 0.00 0.00 0.00 0.00 0.00 0.00 0.00 0.00 0.00 0.00 0.00 0.00 0.00 0.00 0.00 0.00 0.00 0.00 0.00 0.00 0.00 0.00 0.00 0.00 0.00 0.00 0.00
0.00 0.00 0.00 0.00 0.00 0.00 0.00 0.00 0.00 0.00 0.00 0.00 0.00 0.00 0.00 0.00 0.00 0.00 0.00 0.00 0.00 0.00 0.00 0.00 0.00 0.00 0.00 0.00 0.00 0.00 0.00 0.00 0.01 0.01 0.00 0.00 0.00 0.00 0.00 0.00 0.00 0.00 0.00
0.00 0.00 0.00 0.00 0.00 0.00 0.00 0.00 0.00 0.00 0.00 0.00 0.00 0.00 0.00 0.00 0.00 0.00 0.00 0.00 0.00 0.00 0.00 0.00 0.00 0.00 0.00 0.00 0.01 0.00 0.00 0.00 0.00 0.01 0.01 0.01 0.00 0.00 0.00 0.00 0.00 0.00 0.00
0.00 0.00 0.00 0.00 0.00 0.00 0.00 0.00 0.00 0.00 0.00 0.00 0.00 0.00 0.00 0.00 0.00 0.00 0.00 0.00 0.00 0.00 0.00 0.00 0.00 0.00 0.00 0.00 0.01 0.01 0.01 0.01 0.00 0.00 0.01 0.00 0.00 0.00 0.00 0.00 0.00 0.00 0.00
0.00 0.00 0.00 0.00 0.00 0.00 0.00 0.00 0.00 0.00 0.00 0.00 0.00 0.00 0.00 0.00 0.00 0.00 0.00 0.00 0.00 0.00 0.00 0.00 0.00 0.00 0.00 0.00 0.00 0.00 0.00 0.02 0.02 0.01 0.00 0.01 0.01 0.01 0.00 0.00 0.00 0.00 0.00
0.01 0.00 0.00 0.00 0.00 0.00 0.00 0.00 0.00 0.00 0.00 0.00 0.00 0.00 0.00 0.00 0.00 0.00 0.00 0.00 0.00 0.00 0.00 0.00 0.00 0.00 0.00 0.00 0.00 0.00 0.00 0.01 0.01 0.01 0.00 0.01 0.01 0.00 0.00 0.00 0.00 0.00 0.00
MSLP
1014.47 1014.58 1014.65 1014.73 1014.83 1014.96 1015.15 1015.38 1015.63 1015.85 1016.02 1016.13 1016.16 1016.15 1016.11 1016.09 1016.13 1016.24 1016.43 1016.69 1016.99 1017.29 1017.57 1017.80 1017.99 1018.12 1018.22 1018.30 1018.36 1018.42 1018.47 1018.52 1018.56 1018.59 1018.63 1018.66 1018.71 1018.76 1018.83 1018.92 1019.00 1019.09 1019.16
1014.44 1014.51 1014.58 1014.67 1014.78 1014.94 1015.14 1015.38 1015.63 1015.87 1016.07 1016.21 1016.30 1016.34 1016.35 1016.37 1016.43 1016.54 1016.70 1016.92 1017.17 1017.44 1017.69 1017.91 1018.11 1018.25 1018.37 1018.45 1018.51 1018.55 1018.57 1018.58 1018.58 1018.57 1018.57 1018.58 1018.61 1018.65 1018.71 1018.78 1018.85 1018.92 1018.97
1014.38 1014.42 1014.48 1014.58 1014.71 1014.89 1015.11 1015.38 1015.66 1015.94 1016.19 1016.40 1016.57 1016.70 1016.80 1016.88 1016.97 1017.09 1017.23 1017.40 1017.59 1017.79 1017.99 1018.18 1018.36 1018.51 1018.63 1018.72 1018.79 1018.82 1018.82 1018.80 1018.77 1018.73 1018.70 1018.69 1018.70 1018.73 1018.78 1018.84 1018.90 1018.95 1018.98
1014.26 1014.27 1014.31 1014.41 1014.56 1014.76 1015.02 1015.31 1015.64 1015.97 1016.31 1016.62 1016.91 1017.16 1017.38 1017.56 1017.72 1017.86 1018.00 1018.12 1018.25 1018.38 1018.51 1018.65 1018.78 1018.91 1019.03 1019.12 1019.19 1019.22 1019.21 1019.18 1019.12 1019.07 1019.02 1018.99 1018.99 1019.01 1019.06 1019.11 1019.15 1019.19 1019.20
1014.07 1014.04 1014.07 1014.15 1014.31 1014.52 1014.79 1015.12 1015.49 1015.90 1016.33 1016.77 1017.20 1017.61 1017.98 1018.31 1018.57 1018.78 1018.93 1019.04 1019.12 1019.19 1019.25 1019.32 1019.40 1019.49 1019.58 1019.66 1019.72 1019.74 1019.73 1019.69 1019.63 1019.56 1019.50 1019.46 1019.45 1019.47 1019.51 1019.55 1019.58 1019.60 1019.59
1013.85 1013.77 1013.76 1013.82 1013.95 1014.16 1014.44 1014.79 1015.20 1015.67 1016.20 1016.77 1017.36 1017.95 1018.50 1018.99 1019.40 1019.71 1019.93 1020.06 1020.12 1020.14 1020.14 1020.15 1020.18 1020.22 1020.27 1020.33 1020.37 1020.38 1020.36 1020.31 1020.24 1020.17 1020.11 1020.07 1020.05 1020.06 1020.08 1020.11 1020.13 1020.12 1020.09
1013.64 1013.51 1013.45 1013.46 1013.56 1013.74 1014.00 1014.34 1014.77 1015.30 1015.91 1016.60 1017.34 1018.10 1018.83 1019.51 1020.08 1020.53 1020.84 1021.03 1021.12 1021.13 1021.11 1021.07 1021.05 1021.05 1021.06 1021.08 1021.10 1021.09 1021.06 1021.01 1020.94 1020.86 1020.80 1020.75 1020.73 1020.72 1020.72 1020.72 1020.71 1020.67 1020.61
1013.53 1013.34 1013.22 1013.18 1013.23 1013.36 1013.57 1013.88 1014.30 1014.84 1015.50 1016.27 1017.13 1018.03 1018.93 1019.77 1020.51 1021.11 1021.55 1021.83 1021.99 1022.03 1022.02 1021.98 1021.93 1021.90 1021.88 1021.87 1021.86 1021.83 1021.78 1021.72 1021.65 1021.57 1021.50 1021.45 1021.42 1021.39 1021.36 1021.33 1021.27 1021.19 1021.09
1013.58 1013.34 1013.17 1013.07 1013.06 1013.12 1013.27 1013.53 1013.90 1014.41 1015.07 1015.87 1016.78 1017.77 1018.79 1019.76 1020.64 1021.38 1021.95 1022.35 1022.60 1022.72 1022.76 1022.75 1022.72 1022.68 1022.64 1022.61 1022.58 1022.53 1022.47 1022.40 1022.32 1022.25 1022.18 1022.12 1022.07 1022.02 1021.97 1021.89 1021.78 1021.65 1021.49
1013.81 1013.55 1013.35 1013.20 1013.13 1013.12 1013.20 1013.38 1013.68 1014.13 1014.74 1015.50 1016.41 1017.41 1018.47 1019.51 1020.48 1021.32 1022.01 1022.53 1022.89 1023.12 1023.25 1023.30 1023.31 1023.30 1023.28 1023.24 1023.19 1023.14 1023.07 1022.99 1022.91 1022.84 1022.78 1022.72 1022.66 1022.59 1022.50 1022.38 1022.22 1022.03 1021.82
1014.23 1013.97 1013.75 1013.58 1013.46 1013.40 1013.42 1013.51 1013.73 1014.08 1014.60 1015.28 1016.11 1017.06 1018.08 1019.12 1020.12 1021.02 1021.78 1022.41 1022.88 1023.23 1023.46 1023.60 1023.69 1023.73 1023.73 1023.71 1023.66 1023.60 1023.52 1023.45 1023.38 1023.31 1023.26 1023.21 1023.16 1023.08 1022.97 1022.81 1022.61 1022.36 1022.10
1014.77 1014.53 1014.33 1014.16 1014.03 1013.94 1013.90 1013.93 1014.07 1014.32 1014.72 1015.28 1015.99 1016.83 1017.75 1018.72 1019.68 1020.58 1021.38 1022.07 1022.64 1023.09 1023.43 1023.68 1023.85 1023.95 1024.00 1024.00 1023.96 1023.90 1023.82 1023.75 1023.69 1023.64 1023.61 1023.58 1023.55 1023.48 1023.36 1023.19 1022.96 1022.68 1022.37
1015.37 1015.18 1015.01 1014.86 1014.74 1014.65 1014.59 1014.59 1014.65 1014.82 1015.12 1015.55 1016.11 1016.80 1017.59 1018.43 1019.30 1020.15 1020.94 1021.66 1022.29 1022.82 1023.26 1023.60 1023.85 1024.02 1024.10 1024.13 1024.10 1024.03 1023.96 1023.89 1023.84 1023.81 1023.81 1023.82 1023.82 1023.78 1023.69 1023.53 1023.29 1023.00 1022.66
1015.96 1015.82 1015.70 1015.60 1015.51 1015.45 1015.40 1015.39 1015.43 1015.54 1015.75 1016.06 1016.49 1017.03 1017.66 1018.36 1019.11 1019.87 1020.61 1021.32 1021.97 1022.55 1023.05 1023.46 1023.78 1023.99 1024.11 1024.15 1024.12 1024.05 1023.96 1023.89 1023.85 1023.84 1023.88 1023.93 1023.97 1023.99 1023.94 1023.81 1023.60 1023.32 1022.98
1016.51 1016.42 1016.35 1016.30 1016.27 1016.24 1016.24 1016.25 1016.30 1016.39 1016.55 1016.79 1017.11 1017.51 1018.01 1018.57 1019.19 1019.84 1020.51 1021.17 1021.81 1022.40 1022.93 1023.37 1023.72 1023.95 1024.08 1024.12 1024.08 1023.99 1023.88 1023.80 1023.76 1023.77 1023.83 1023.93 1024.03 1024.10 1024.11 1024.04 1023.88 1023.64 1023.32
1017.03 1016.97 1016.94 1016.94 1016.96 1016.99 1017.05 1017.11 1017.20 1017.31 1017.46 1017.65 1017.91 1018.23 1018.61 1019.05 1019.55 1020.10 1020.68 1021.28 1021.87 1022.44 1022.96 1023.40 1023.75 1023.98 1024.10 1024.11 1024.04 1023.92 1023.79 1023.69 1023.63 1023.65 1023.73 1023.85 1024.00 1024.13 1024.21 1024.20 1024.11 1023.92 1023.65
1017.55 1017.51 1017.51 1017.54 1017.60 1017.70 1017.81 1017.93 1018.07 1018.23 1018.40 1018.60 1018.83 1019.10 1019.41 1019.76 1020.17 1020.62 1021.12 1021.64 1022.17 1022.69 1023.17 1023.58 1023.90 1024.10 1024.19 1024.17 1024.07 1023.91 1023.75 1023.61 1023.54 1023.54 1023.62 1023.76 1023.93 1024.10 1024.23 1024.28 1024.25 1024.11 1023.90
1018.12 1018.09 1018.10 1018.16 1018.26 1018.39 1018.55 1018.73 1018.92 1019.12 1019.33 1019.55 1019.78 1020.03 1020.31 1020.61 1020.95 1021.32 1021.74 1022.18 1022.65 1023.10 1023.53 1023.89 1024.16 1024.32 1024.38 1024.32 1024.19 1024.00 1023.80 1023.64 1023.53 1023.51 1023.57 1023.70 1023.87 1024.05 1024.20 1024.29 1024.29 1024.21 1024.04
1018.78 1018.76 1018.78 1018.86 1018.98 1019.13 1019.31 1019.52 1019.75 1019.98 1020.22 1020.46 1020.70 1020.95 1021.21 1021.48 1021.77 1022.09 1022.44 1022.81 1023.20 1023.59 1023.95 1024.25 1024.48 1024.61 1024.63 1024.55 1024.40 1024.19 1023.98 1023.79 1023.66 1023.60 1023.63 1023.72 1023.86 1024.02 1024.15 1024.23 1024.24 1024.18 1024.05
1019.53 1019.53 1019.58 1019.67 1019.79 1019.95 1020.13 1020.34 1020.56 1020.80 1021.04 1021.29 1021.54 1021.79 1022.03 1022.28 1022.54 1022.81 1023.10 1023.41 1023.73 1024.05 1024.35 1024.61 1024.79 1024.90 1024.90 1024.82 1024.67 1024.47 1024.26 1024.06 1023.91 1023.82 1023.80 1023.84 1023.92 1024.02 1024.10 1024.14 1024.12 1024.05 1023.91
1020.35 1020.40 1020.47 1020.58 1020.71 1020.85 1021.01 1021.18 1021.38 1021.58 1021.80 1022.03 1022.27 1022.50 1022.73 1022.96 1023.19 1023.42 1023.66 1023.91 1024.17 1024.43 1024.67 1024.89 1025.04 1025.13 1025.15 1025.08 1024.96 1024.79 1024.60 1024.41 1024.25 1024.14 1024.08 1024.06 1024.06 1024.07 1024.07 1024.03 1023.96 1023.83 1023.67
1021.17 1021.28 1021.41 1021.54 1021.67 1021.79 1021.90 1022.03 1022.16 1022.31 1022.48 1022.67 1022.87 1023.08 1023.29 1023.49 1023.69 1023.88 1024.08 1024.28 1024.48 1024.69 1024.88 1025.06 1025.19 1025.28 1025.31 1025.28 1025.20 1025.08 1024.93 1024.78 1024.63 1024.51 1024.40 1024.32 1024.25 1024.17 1024.07 1023.94 1023.77 1023.58 1023.36
1021.93 1022.13 1022.31 1022.47 1022.60 1022.69 1022.77 1022.83 1022.89 1022.97 1023.08 1023.21 1023.37 1023.54 1023.72 1023.89 1024.06 1024.22 1024.38 1024.53 1024.68 1024.83 1024.98 1025.11 1025.23 1025.32 1025.37 1025.38 1025.35 1025.28 1025.19 1025.08 1024.96 1024.83 1024.71 1024.58 1024.44 1024.27 1024.08 1023.86 1023.60 1023.33 1023.04
1022.58 1022.85 1023.10 1023.29 1023.42 1023.50 1023.52 1023.52 1023.52 1023.54 1023.58 1023.66 1023.77 1023.91 1024.06 1024.21 1024.35 1024.48 1024.59 1024.70 1024.80 1024.89 1024.99 1025.09 1025.19 1025.27 1025.33 1025.37 1025.38 1025.36 1025.32 1025.25 1025.16 1025.05 1024.92 1024.77 1024.58 1024.36 1024.10 1023.79 1023.46 1023.11 1022.75
1023.09 1023.43 1023.72 1023.94 1024.08 1024.14 1024.13 1024.09 1024.04 1024.00 1024.00 1024.04 1024.12 1024.24 1024.37 1024.50 1024.62 1024.72 1024.79 1024.85 1024.90 1024.94 1024.99 1025.04 1025.09 1025.15 1025.20 1025.25 1025.28 1025.29 1025.29 1025.25 1025.20 1025.11 1024.99 1024.83 1024.63 1024.37 1024.07 1023.73 1023.35 1022.94 1022.53
1023.48 1023.87 1024.19 1024.42 1024.55 1024.60 1024.57 1024.51 1024.43 1024.37 1024.35 1024.38 1024.45 1024.55 1024.67 1024.79 1024.90 1024.97 1025.02 1025.03 1025.03 1025.02 1025.00 1024.99 1025.00 1025.01 1025.03 1025.06 1025.09 1025.11 1025.11 1025.10 1025.06 1024.99 1024.89 1024.74 1024.55 1024.30 1024.00 1023.64 1023.25 1022.82 1022.39
Thickness
5734 5734 5734 5733 5733 5732 5732 5731 5730 5729 5728 5728 5728 5729 5729 5730 5730 5729 5729 5728 5727 5725 5724 5722 5720 5718 5717 5715 5714 5713 5712 5710 5708 5707 5705 5704 5702 5701 5700 5698 5696 5695 5693
5731 5731 5730 5730 5730 5729 5729 5728 5727 5726 5725 5725 5725 5726 5726 5727 5727 5726 5725 5724 5722 5721 5720 5718 5717 5715 5714 5712 5711 5711 5710 5708 5707 5705 5704 5702 5701 5699 5698 5696 5695 5693 5691
5728 5728 5727 5727 5727 5727 5726 5725 5724 5723 5722 5722 5722 5722 5722 5722 5722 5721 5720 5719 5717 5716 5715 5714 5712 5711 5710 5708 5708 5707 5706 5704 5703 5702 5701 5699 5698 5696 5695 5693 5691 5690 5688
5724 5724 5724 5724 5723 5723 5722 5721 5720 5718 5718 5717 5716 5716 5716 5716 5716 5715 5714 5712 5711 5709 5708 5708 5706 5705 5704 5703 5702 5702 5700 5699 5698 5697 5696 5694 5693 5691 5690 5688 5686 5685 5683
5719 5720 5720 5720 5720 5720 5719 5718 5717 5716 5713 5712 5711 5709 5709 5708 5708 5707 5706 5705 5703 5702 5701 5699 5698 5697 5696 5696 5695 5695 5694 5693 5692 5691 5689 5688 5686 5684 5682 5681 5679 5677 5676
5713 5714 5716 5717 5717 5716 5715 5713 5712 5712 5710 5709 5706 5702 5700 5699 5698 5698 5697 5696 5695 5693 5692 5691 5690 5688 5687 5687 5687 5687 5686 5685 5684 5683 5682 5680 5678 5676 5674 5673 5671 5669 5667
5707 5707 5709 5711 5712 5711 5710 5710 5708 5706 5704 5704 5698 5691 5689 5688 5687 5687 5687 5686 5685 5683 5682 5682 5681 5679 5677 5677 5677 5677 5676 5676 5675 5674 5672 5671 5669 5667 5665 5664 5662 5660 5657
5700 5701 5703 5704 5705 5706 5704 5704 5704 5701 5700 5701 5696 5687 5680 5676 5676 5676 5676 5675 5674 5673 5672 5671 5670 5669 5667 5666 5665 5665 5665 5665 5664 5663 5662 5660 5658 5657 5655 5653 5651 5649 5647
5694 5696 5697 5698 5700 5700 5700 5701 5700 5699 5696 5695 5696 5690 5680 5673 5667 5664 5664 5664 5663 5662 5661 5660 5659 5658 5656 5655 5654 5654 5654 5654 5653 5651 5650 5648 5646 5645 5643 5641 5639 5637 5635
5686 5689 5690 5691 5693 5694 5695 5696 5696 5696 5694 5690 5689 5689 5686 5681 5668 5658 5653 5653 5652 5651 5650 5649 5647 5646 5645 5645 5643 5642 5642 5641 5640 5639 5637 5635 5633 5631 5629 5628 5626 5623 5622
5679 5680 5682 5684 5686 5687 5688 5689 5690 5690 5689 5686 5683 5681 5678 5674 5671 5661 5650 5644 5642 5640 5639 5637 5636 5635 5634 5633 5632 5631 5630 5628 5627 5625 5623 5622 5620 5618 5616 5614 5612 5609 5607
5670 5671 5672 5675 5678 5679 5681 5681 5682 5682 5681 5680 5677 5675 5672 5668 5664 5659 5649 5640 5634 5629 5628 5627 5626 5624 5623 5622 5622 5620 5618 5616 5614 5612 5610 5608 5606 5603 5601 5599 5596 5594 5591
5661 5661 5663 5665 5668 5670 5671 5671 5671 5671 5671 5669 5667 5665 5663 5661 5659 5655 5646 5635 5627 5620 5618 5616 5615 5614 5613 5611 5610 5608 5606 5604 5601 5599 5597 5594 5591 5589 5586 5583 5580 5577 5574
5652 5651 5654 5656 5657 5658 5659 5660 5659 5659 5658 5657 5655 5653 5652 5651 5650 5647 5640 5631 5620 5612 5609 5607 5605 5604 5603 5601 5599 5596 5594 5592 5589 5587 5584 5581 5577 5574 5571 5567 5564 5560 5556
5641 5641 5644 5645 5645 5646 5647 5647 5646 5645 5644 5643 5642 5641 5640 5638 5637 5635 5631 5627 5619 5607 5600 5598 5596 5595 5593 5591 5588 5586 5584 5581 5578 5575 5571 5568 5564 5560 5556 5553 5548 5544 5540
5630 5631 5631 5632 5633 5634 5634 5634 5633 5632 5631 5630 5630 5629 5627 5625 5624 5622 5619 5616 5612 5605 5594 5589 5587 5586 5584 5581 5579 5576 5574 5570 5567 5564 5560 5556 5551 5547 5543 5539 5534 5530 5526
5619 5620 5620 5621 5621 5621 5621 5621 5620 5619 5619 5617 5617 5616 5613 5613 5612 5610 5607 5604 5600 5596 5588 5581 5578 5576 5574 5571 5569 5566 5564 5560 5556 5553 5548 5544 5540 5535 5531 5526 5521 5517 5513
5607 5607 5608 5609 5609 5608 5608 5609 5609 5608 5607 5605 5604 5603 5601 5601 5598 5597 5595 5591 5588 5585 5580 5572 5568 5565 5563 5560 5558 5556 5553 5550 5546 5543 5538 5534 5529 5525 5520 5515 5510 5506 5502
5595 5596 5596 5596 5596 5596 5596 5596 5596 5595 5594 5593 5592 5590 5588 5588 5585 5583 5582 5579 5576 5574 5568 5563 5557 5554 5552 5550 5547 5545 5543 5540 5537 5533 5529 5524 5520 5515 5510 5506 5501 5497 5493
5583 5584 5584 5584 5584 5585 5585 5585 5584 5583 5582 5581 5580 5579 5577 5576 5574 5572 5570 5567 5565 5561 5556 5551 5546 5543 5540 5539 5535 5531 5529 5528 5526 5523 5519 5515 5511 5507 5503 5499 5494 5490 5487
5572 5572 5572 5572 5572 5573 5573 5573 5572 5571 5570 5569 5568 5567 5566 5566 5565 5563 5561 5557 5554 5549 5544 5539 5534 5531 5528 5526 5523 5520 5517 5515 5514 5513 5509 5507 5504 5500 5497 5494 5490 5486 5483
5560 5560 5560 5560 5560 5561 5562 5563 5562 5560 5559 5557 5556 5556 5555 5555 5554 5553 5551 5549 5545 5540 5534 5529 5524 5521 5519 5516 5514 5512 5508 5505 5503 5504 5501 5498 5497 5494 5493 5490 5488 5484 5480
5548 5547 5547 5548 5548 5549 5552 5552 5552 5550 5548 5547 5546 5545 5545 5544 5543 5542 5541 5538 5535 5532 5528 5523 5518 5514 5512 5510 5507 5504 5501 5498 5495 5496 5494 5491 5491 5489 5490 5488 5486 5483 5479
5537 5537 5537 5538 5539 5540 5542 5542 5542 5540 5539 5537 5536 5535 5534 5533 5533 5532 5529 5526 5524 5522 5520 5516 5513 5510 5508 5505 5502 5498 5496 5493 5492 5491 5490 5486 5486 5485 5487 5486 5484 5481 5478
5527 5527 5528 5529 5529 5530 5532 5533 5532 5530 5528 5527 5527 5526 5525 5524 5523 5522 5519 5516 5514 5513 5512 5510 5508 5506 5504 5501 5498 5494 5491 5488 5484 5485 5485 5483 5482 5481 5482 5483 5482 5480 5478
5519 5519 5519 5519 5520 5520 5523 5524 5523 5521 5518 5517 5517 5516 5516 5515 5514 5513 5510 5507 5505 5503 5503 5503 5503 5502 5500 5498 5495 5491 5488 5483 5480 5479 5482 5480 5479 5477 5476 5479 5481 5480 5478